Wind_Speed
9 8 8 7 7 7 7 7 7 8 8 7 7 7 7 7 6 6 6 6 6 7 7 8 8 8 9 9 10 11 12 13 13 13 13 14 15 16 16 16 15 14 13 12 11 10 9 8 8 8 8 7 7 7 7 7 6 6 6 6 6 6 7 7 8 9 9 10 11 12 13 14 15 16 17 18 19 20 21 22 23 23 24 25 26
8 8 7 7 8 7 7 6 6 7 7 6 6 6 6 6 6 6 5 6 6 7 7 7 7 8 9 10 11 12 13 13 13 13 14 15 16 17 16 15 15 13 12 11 10 8 8 8 7 7 7 6 6 6 6 6 6 6 7 7 7 7 8 8 9 9 10 11 12 13 14 15 16 17 18 19 20 21 22 23 23 24 25 26 26
7 7 7 7 7 7 6 6 5 5 5 5 5 6 6 6 6 5 5 5 6 6 6 7 7 8 9 10 11 12 13 13 13 14 15 16 17 17 16 15 14 13 11 10 9 8 7 7 7 6 5 5 6 6 6 6 7 7 8 8 8 9 9 10 10 11 11 12 13 14 15 16 17 18 19 20 21 21 22 23 23 24 25 26 26
8 8 8 7 7 6 6 5 4 4 4 5 5 6 6 6 6 5 5 5 5 5 5 6 7 8 9 10 11 12 12 13 14 15 16 16 16 16 15 14 13 12 10 9 7 7 6 6 6 5 4 5 5 6 6 7 7 8 8 9 9 10 10 11 12 12 13 14 14 15 16 17 18 18 19 20 21 21 22 23 23 24 25 26 27
9 9 9 8 7 6 5 4 4 4 4 4 5 5 6 5 5 5 4 4 4 4 4 5 7 8 9 10 11 12 12 13 14 15 15 16 15 15 14 13 12 10 9 8 6 5 5 5 4 3 4 4 5 6 7 7 8 9 9 9 10 11 11 12 13 13 14 15 15 16 17 17 18 19 19 20 21 22 22 23 24 25 26 27 28
8 9 9 8 7 6 5 4 3 3 3 4 4 5 5 5 5 5 4 4 4 4 5 6 7 8 8 9 11 12 13 14 15 15 15 15 14 14 13 12 10 9 8 7 5 4 4 3 3 3 3 4 5 6 7 8 9 9 10 10 11 12 12 13 13 13 14 15 16 17 18 18 19 19 20 20 21 22 23 24 25 25 26 27 28
7 7 8 8 7 6 5 4 3 3 3 3 4 4 4 5 5 5 4 4 4 4 5 5 6 7 8 9 11 13 14 14 14 14 14 14 13 13 12 11 9 8 7 5 4 4 3 2 2 3 3 5 6 7 8 9 9 10 11 11 12 13 13 13 14 14 15 16 16 17 18 19 19 20 20 21 22 22 23 24 25 26 27 29 30
5 6 6 7 7 7 6 5 4 3 3 3 3 4 4 4 5 5 5 5 5 4 5 5 7 8 9 10 12 14 14 14 14 14 13 13 12 11 10 9 8 6 5 4 3 2 2 1 2 3 4 5 6 7 9 9 10 11 12 12 13 14 14 14 15 15 16 16 17 18 18 19 19 20 21 22 22 23 24 25 26 27 29 30 32
3 4 4 4 6 6 6 5 5 4 3 3 3 3 4 4 4 5 5 5 5 5 6 7 8 10 10 12 13 14 14 14 13 13 12 12 11 10 9 8 7 5 4 3 2 1 0 1 2 3 5 6 7 8 9 10 11 12 12 13 14 14 15 15 15 16 16 17 17 18 18 19 20 21 21 22 23 24 25 26 27 29 31 32 33
2 2 2 2 3 4 5 4 4 3 3 2 2 2 3 3 3 4 5 5 6 7 8 9 10 11 11 12 13 13 13 13 12 12 11 11 10 9 8 7 6 5 4 3 2 1 1 2 3 4 5 6 7 9 10 11 12 12 13 14 14 15 15 16 16 17 17 17 18 18 19 20 21 22 22 23 24 25 26 28 29 31 33 34 34
1 1 1 1 1 3 3 3 2 2 1 1 0 0 1 2 3 4 5 6 7 8 10 11 11 11 11 12 12 12 12 12 11 11 10 9 9 8 7 6 5 4 3 2 2 2 2 3 4 5 6 7 8 9 10 11 12 13 14 14 15 15 16 16 16 17 17 18 19 19 20 21 22 23 23 24 25 26 28 30 31 33 34 35 36
2 1 0 0 1 1 1 1 0 0 1 1 1 1 1 1 2 3 5 6 7 8 9 10 10 10 10 11 11 12 12 11 10 10 9 8 7 7 6 6 5 4 3 3 2 3 4 5 5 6 7 8 9 10 11 12 13 14 14 15 15 16 16 17 17 18 18 19 20 20 21 22 23 24 24 25 26 28 30 31 33 34 35 36 37
4 3 2 1 1 1 1 2 2 3 3 2 2 1 1 1 2 3 4 5 6 7 8 8 9 10 10 10 10 10 10 10 10 9 8 8 7 6 6 5 5 4 3 3 3 4 5 6 7 7 8 9 10 11 12 13 13 14 15 15 16 16 17 17 18 18 19 19 20 21 22 22 24 25 25 26 28 29 31 32 34 34 35 36 37
4 5 4 4 3 3 3 4 5 5 4 3 1 1 2 3 4 4 5 6 7 8 7 8 8 9 9 9 9 9 9 9 9 8 8 7 7 6 5 5 4 4 4 4 4 5 6 7 8 9 9 10 11 12 12 13 14 15 15 16 16 17 17 17 18 19 20 20 21 22 22 23 24 25 26 28 29 31 32 33 34 35 36 37 37
3 4 5 5 5 6 6 6 6 6 5 3 1 2 4 6 7 7 7 7 8 8 8 8 8 8 8 8 8 8 8 8 8 8 7 7 6 6 5 4 4 5 5 5 6 7 7 8 9 9 10 11 12 12 13 13 14 15 15 16 16 17 17 18 18 19 20 21 22 23 23 24 25 26 28 29 30 32 33 34 34 35 36 36 37
3 4 4 5 5 6 7 7 7 6 4 2 1 3 5 7 8 9 9 9 9 9 9 8 8 8 8 8 8 8 7 7 7 7 6 6 5 5 5 5 5 6 6 7 7 8 9 9 10 10 11 12 12 13 13 14 14 15 15 16 16 17 17 18 19 20 20 21 22 23 24 25 26 27 29 30 31 32 33 34 35 35 36 36 37
4 4 4 4 5 5 5 6 6 5 4 2 1 3 5 7 8 9 9 9 9 9 9 8 8 7 7 7 7 7 7 7 6 6 5 5 5 5 5 5 6 7 8 8 9 10 10 10 11 11 12 12 13 13 14 14 14 14 15 15 16 17 18 19 20 20 21 22 23 24 25 26 27 28 29 31 32 33 33 34 35 35 36 36 37
5 5 5 5 5 5 4 4 4 4 4 3 2 3 5 6 7 8 8 8 8 8 8 8 8 7 7 7 7 7 6 6 5 5 5 5 5 5 6 7 8 8 9 10 10 11 11 12 12 12 13 13 13 13 14 14 14 15 15 16 17 18 19 19 20 21 22 22 23 24 26 27 27 29 30 31 32 33 34 34 35 36 36 37 38
6 5 5 5 5 6 5 4 3 3 4 4 4 4 5 6 7 7 7 7 7 7 7 7 7 7 7 7 6 6 6 5 5 5 5 6 6 7 8 8 9 10 10 11 11 12 12 12 13 13 13 13 13 14 14 14 15 15 16 17 17 18 19 20 21 21 22 23 24 25 26 28 28 29 31 31 32 33 34 34 35 36 36 37 38
7 6 5 5 5 5 5 4 3 4 4 5 5 5 5 6 6 7 7 7 7 7 7 7 7 7 7 6 6 6 5 6 6 6 6 7 7 8 9 10 10 10 11 11 12 12 12 12 12 13 13 13 14 14 14 15 16 16 17 17 18 19 19 20 21 21 22 23 24 26 27 28 29 30 31 31 32 33 34 35 35 36 37 38 38
8 7 6 5 5 4 4 3 3 4 5 6 6 6 6 6 7 7 8 8 8 7 8 8 7 7 7 7 6 6 6 7 7 7 7 8 8 9 10 10 11 11 12 12 12 12 12 12 12 12 13 13 14 14 15 15 16 16 17 18 18 19 19 20 21 22 23 24 25 26 27 28 29 30 31 31 32 33 34 35 35 36 37 38 39
7 7 7 6 5 5 4 4 4 5 5 6 7 7 7 8 7 8 8 9 9 9 9 8 8 8 8 8 7 8 8 8 8 8 8 9 9 10 10 11 11 12 12 12 12 12 12 12 12 12 13 13 14 15 15 16 16 17 18 18 19 19 20 20 21 22 23 24 25 26 27 28 29 30 31 31 32 33 34 35 36 37 38 38 39
6 7 7 7 6 6 5 5 5 6 6 7 8 8 8 9 9 9 9 9 10 10 10 10 9 9 9 8 8 9 9 9 8 9 9 10 10 10 11 11 11 12 12 12 12 12 12 12 12 13 13 14 15 15 16 17 17 17 18 19 19 20 20 21 22 23 24 25 26 27 27 28 29 30 30 31 32 33 34 35 36 37 38 39 40
5 7 7 7 7 7 6 6 6 7 7 8 8 9 9 9 9 10 10 10 10 11 11 11 10 10 10 9 9 10 10 10 10 10 10 10 11 11 11 12 12 12 12 12 12 12 13 13 13 14 14 15 16 16 17 18 18 18 18 19 19 20 20 21 22 23 24 25 26 26 27 28 29 29 30 31 32 33 34 35 36 37 38 39 40
5 5 6 7 7 8 7 7 8 8 8 8 9 9 10 10 10 11 11 11 11 11 11 11 11 11 11 11 11 11 11 11 11 11 11 11 12 12 12 12 12 12 12 12 12 12 13 13 14 15 15 16 16 17 17 18 18 18 18 18 19 20 21 22 23 24 24 24 25 26 27 28 29 30 30 31 32 33 35 36 37 38 39 40 41
5 5 6 7 7 8 8 9 9 9 9 9 10 10 10 11 11 11 12 12 12 12 12 12 13 12 12 12 12 13 13 13 13 13 13 13 12 13 13 13 13 12 12 13 12 13 14 14 15 16 16 16 17 17 17 18 18 18 19 19 19 20 22 22 23 24 24 24 25 26 27 28 29 30 31 31 32 34 36 37 38 38 39 40 41
6 6 6 7 7 8 9 10 10 10 10 11 11 11 11 11 12 12 13 13 13 13 13 14 14 14 14 14 14 14 14 14 14 14 14 14 14 13 13 13 13 13 14 14 14 14 15 16 16 16 17 17 17 17 18 18 18 19 19 20 20 21 21 22 23 23 24 25 26 27 28 29 30 31 31 32 33 34 36 38 38 39 39 41 42
6 7 7 7 7 8 9 10 11 12 12 12 13 13 13 12 13 13 14 14 14 15 14 15 15 15 16 16 16 16 16 16 15 15 15 15 15 15 14 14 14 15 15 16 16 16 16 17 17 17 17 17 17 18 18 18 19 19 20 20 21 21 21 22 22 23 25 26 26 27 28 29 30 32 32 33 34 35 36 38 38 38 40 41 43
7 7 7 8 8 8 8 9 10 12 13 14 14 14 14 14 14 15 15 15 16 16 16 16 17 17 17 17 18 17 17 17 16 17 17 17 16 16 16 15 16 16 17 17 17 17 17 18 17 17 17 17 18 18 19 19 19 20 20 21 21 21 21 22 22 23 24 26 27 28 29 30 31 32 33 34 35 35 36 37 38 38 40 42 44
9 8 8 8 8 8 8 9 10 12 13 15 16 16 16 16 16 16 16 17 17 17 18 18 19 19 19 19 19 19 19 18 18 18 19 18 18 18 17 17 17 17 18 18 18 18 18 18 18 17 17 18 18 19 19 19 20 20 20 21 21 21 22 23 23 24 25 26 28 29 30 31 31 33 34 35 35 36 36 36 38 39 40 42 44
11 10 9 9 8 8 9 9 10 11 12 14 15 16 17 17 17 17 18 19 19 19 20 20 20 20 20 20 20 20 20 19 19 19 20 20 20 19 18 18 18 19 19 19 19 19 19 19 18 17 17 18 18 19 19 19 20 20 20 20 21 21 22 23 24 25 26 26 28 29 31 32 33 34 35 35 36 36 36 36 37 39 41 43 44
13 12 11 10 9 9 10 10 11 11 12 13 14 15 17 18 18 18 19 19 20 20 21 21 21 21 20 21 21 21 21 20 20 20 21 21 21 20 19 19 19 20 20 20 20 19 19 19 18 18 18 18 18 18 19 19 20 20 20 20 21 22 22 23 24 26 27 28 28 29 31 33 34 35 35 36 36 35 35 36 37 39 41 43 44
15 13 13 12 11 11 12 11 11 12 12 13 13 14 16 18 19 19 19 19 20 21 21 21 21 21 21 21 21 22 22 21 21 21 22 22 21 20 20 19 20 20 20 20 20 19 19 18 18 18 18 18 18 18 19 19 20 20 20 20 21 23 23 24 25 27 28 29 29 30 31 33 34 36 36 36 36 35 35 36 37 39 41 43 44
17 16 15 14 13 13 13 13 12 12 13 13 13 14 15 16 18 18 19 19 20 20 21 21 21 21 21 21 22 22 22 22 21 21 21 21 21 20 20 20 19 20 20 21 20 19 19 18 18 18 18 18 18 18 19 19 20 20 20 20 21 22 23 25 26 27 28 29 30 31 32 33 35 36 37 36 36 35 36 36 37 39 41 42 43
18 17 16 16 16 16 15 14 14 13 14 14 14 14 14 15 16 17 18 19 19 20 21 21 21 21 21 21 21 21 22 22 21 21 21 21 21 20 20 20 19 19 20 21 20 19 19 18 18 18 18 18 18 18 19 19 20 20 20 21 22 22 24 25 26 27 28 29 30 31 32 34 35 36 37 37 36 35 36 36 37 38 40 42 43
19 19 18 18 18 18 18 17 16 15 15 15 15 14 14 14 15 16 17 18 18 19 20 21 20 20 21 21 21 21 21 21 21 20 20 20 20 20 20 20 19 19 20 20 20 20 19 19 19 18 18 18 18 18 19 20 20 21 22 22 23 23 24 26 27 28 29 29 31 32 33 34 35 36 36 36 36 35 36 36 37 38 39 41 42
20 20 20 20 20 20 20 20 19 17 16 16 16 15 15 15 15 16 16 17 18 18 18 19 19 19 19 20 20 20 19 19 19 19 19 19 19 19 19 20 20 20 20 20 20 20 19 19 19 19 19 19 19 19 20 21 21 22 22 23 23 24 25 27 28 28 29 30 31 32 34 35 36 36 36 35 35 36 36 35 36 37 39 41 42
22 22 21 21 21 21 21 22 21 20 18 17 17 17 16 16 16 17 16 17 17 18 17 17 17 17 17 18 18 17 17 17 16 16 17 18 19 20 20 20 21 21 20 20 20 19 19 19 20 21 20 19 19 21 22 22 22 23 23 24 24 25 26 27 28 29 30 30 31 33 34 35 36 36 36 35 34 35 36 36 36 37 38 40 41
24 24 23 23 23 22 22 23 23 22 21 20 19 18 18 18 18 17 17 17 18 17 17 17 17 17 17 17 17 16 16 16 16 16 17 19 20 21 21 21 21 21 20 19 18 18 19 20 21 21 21 20 20 21 23 24 24 23 24 25 25 26 26 27 28 30 31 31 31 33 35 35 36 36 36 35 34 34 36 36 36 36 38 40 40
27 26 25 25 24 24 23 23 24 24 23 22 22 21 19 19 19 18 18 19 18 17 17 17 17 17 17 17 17 17 18 18 18 19 20 21 22 22 21 21 21 20 19 18 18 18 19 21 22 22 22 22 23 23 24 25 25 24 24 25 26 26 27 28 29 31 32 32 32 34 35 35 36 36 36 35 34 34 35 35 35 35 37 39 39
28 28 27 26 26 26 25 25 26 25 25 25 24 23 22 22 21 20 20 19 18 17 17 17 17 17 18 18 19 19 20 21 21 22 22 23 23 22 21 20 20 20 19 19 19 20 21 22 23 23 23 24 24 26 26 26 25 25 25 26 26 26 27 28 29 31 32 32 33 35 35 35 36 36 35 35 34 35 35 35 34 34 36 37 37
29 29 28 28 28 28 27 27 28 27 27 27 26 25 25 25 23 21 21 20 18 18 18 18 18 19 20 20 21 21 22 23 24 25 24 24 24 23 22 21 20 21 21 21 22 22 22 23 24 25 26 26 26 27 28 27 26 27 27 27 27 27 27 29 30 31 32 33 34 36 36 36 36 36 36 35 35 35 35 34 34 33 34 36 36
30 29 28 28 29 29 29 29 29 29 29 28 27 27 28 27 26 24 23 22 20 20 19 19 20 21 22 22 22 23 23 24 25 26 26 25 24 23 23 22 22 23 23 23 23 23 24 25 25 26 28 28 28 28 29 28 28 28 28 27 28 28 28 29 31 31 33 34 35 36 37 36 37 36 36 36 35 36 35 34 33 33 33 35 35
30 29 28 29 29 29 30 30 30 30 30 30 29 29 29 29 28 27 26 24 23 22 21 21 23 24 23 23 24 25 25 25 26 26 26 26 25 24 24 24 24 25 25 25 25 26 26 27 28 29 30 31 30 30 29 30 30 30 30 29 29 29 29 30 32 32 33 34 35 36 37 37 37 37 36 36 36 36 36 34 33 33 32 33 33
30 29 29 29 28 28 29 30 30 30 30 30 31 32 31 30 29 29 28 27 26 24 23 24 27 27 25 25 25 26 26 27 27 27 27 27 26 26 26 26 26 26 27 27 28 28 29 30 30 31 31 32 32 32 30 31 31 31 31 31 31 31 30 32 33 33 34 34 34 36 36 37 38 37 36 37 37 37 36 35 34 33 32 32 32
31 30 29 29 28 28 29 29 29 29 29 30 31 33 32 31 30 30 30 29 28 26 25 27 30 30 28 28 27 27 28 28 29 29 28 28 28 28 28 28 28 28 28 29 30 31 31 32 32 32 32 33 33 33 32 32 32 31 31 32 32 32 32 33 34 35 35 35 35 36 36 36 37 37 36 38 38 38 37 35 34 34 33 32 32
31 32 31 30 29 29 29 29 28 27 27 27 28 30 31 31 31 30 31 31 29 28 28 30 31 32 32 30 30 30 30 30 30 31 30 29 29 29 30 31 31 30 30 30 31 33 34 34 34 34 34 34 34 33 33 33 32 32 32 32 32 33 34 34 35 37 38 37 37 36 36 37 37 36 36 38 39 39 38 36 35 35 34 32 33
32 32 33 32 31 30 30 28 26 24 25 24 24 26 28 29 30 30 31 31 31 30 31 32 33 34 34 33 33 33 32 33 33 33 32 32 31 31 32 33 33 33 33 32 33 34 35 35 35 35 35 35 35 34 34 34 33 33 32 32 33 34 36 36 36 38 39 39 39 38 37 37 37 37 37 38 39 40 39 38 36 36 36 34 34
35 33 33 34 34 33 30 27 24 23 23 23 23 23 24 26 27 27 28 29 31 32 33 34 34 36 36 35 36 36 36 36 35 35 35 34 33 33 34 35 35 35 35 35 35 35 36 36 36 36 36 36 37 36 36 35 34 33 33 32 33 34 36 38 38 39 41 41 40 40 40 40 39 38 38 38 39 41 40 39 38 37 37 36 36
39 37 35 35 35 34 31 28 25 24 24 25 24 24 24 26 26 26 26 27 28 30 32 32 33 35 37 37 37 37 38 38 38 38 37 36 36 36 36 37 37 38 38 38 38 37 37 37 36 36 36 37 38 38 37 36 34 34 34 34 34 34 36 38 39 41 43 42 42 42 41 42 41 39 40 40 40 41 42 41 39 39 38 38 37
41 40 39 37 35 34 33 31 29 28 27 27 27 27 26 27 27 27 27 27 28 29 29 29 30 32 34 35 37 37 37 38 39 39 39 38 38 39 39 39 40 40 40 40 40 39 39 38 37 36 36 37 38 38 38 38 37 35 34 35 36 36 37 37 39 43 44 43 44 43 43 44 44 41 41 42 42 42 43 42 41 41 40 39 38
Wind_Direction
112 114 115 118 117 117 117 117 115 112 111 112 113 110 109 108 109 112 114 114 116 119 123 125 125 127 126 126 126 126 125 125 125 124 123 126 130 133 135 135 135 133 129 125 122 120 114 105 95 85 75 67 60 54 49 44 40 33 25 17 10 5 359 355 353 350 348 346 345 345 344 344 345 346 346 345 344 343 343 342 341 340 339 338 339
105 109 113 116 113 114 116 118 117 117 118 119 119 115 115 113 115 118 117 115 118 123 127 126 126 129 128 128 128 128 128 129 130 130 131 134 135 136 138 138 136 134 130 127 125 121 113 102 91 80 71 63 57 50 43 35 29 24 18 11 4 360 355 351 349 346 346 345 344 344 343 344 346 346 344 344 343 343 342 341 340 339 339 339 339
97 101 105 107 108 111 115 119 121 123 125 129 128 123 122 120 123 122 116 114 120 125 129 131 134 136 132 132 133 133 134 136 136 136 136 137 137 138 140 140 138 135 131 129 127 121 111 99 86 76 67 59 51 41 32 25 20 17 12 7 2 358 353 349 347 346 346 346 345 343 343 344 345 345 344 343 343 342 341 340 339 339 339 339 340
92 93 92 93 98 104 108 114 121 127 130 135 131 126 124 122 122 118 114 116 119 124 132 141 143 142 138 138 138 138 140 140 138 137 137 137 138 140 141 141 139 136 134 131 128 121 109 96 85 75 63 50 40 29 21 16 13 10 7 4 360 355 352 350 349 347 346 347 346 344 344 344 345 345 344 343 342 341 340 340 340 341 341 341 341
90 88 86 85 88 93 99 108 118 123 128 129 125 120 119 120 119 119 122 123 125 134 149 156 151 147 143 143 143 142 142 139 138 137 138 139 141 143 143 143 141 138 136 133 128 118 104 94 85 71 52 37 28 20 12 9 7 4 2 360 358 355 353 352 351 349 347 347 346 345 345 345 346 346 345 343 342 342 342 342 342 342 342 343 343
88 90 90 88 89 91 96 105 112 117 123 123 120 118 119 122 124 130 135 136 141 156 166 165 158 151 145 145 146 143 140 139 139 139 141 143 144 145 145 144 143 141 139 135 128 117 103 91 76 53 36 25 17 10 5 3 1 358 358 358 357 356 354 352 351 349 348 347 347 346 346 346 346 346 345 344 344 343 343 343 343 343 344 344 344
89 93 96 98 99 101 103 107 114 118 123 124 119 119 125 129 135 142 149 153 155 167 171 168 161 151 146 147 146 143 141 141 141 143 145 146 146 145 145 146 145 143 141 137 131 121 105 84 52 30 18 14 8 1 359 358 356 355 356 357 356 355 354 352 350 348 349 348 348 348 347 346 346 346 345 345 345 344 343 343 343 344 344 344 344
87 93 98 107 110 109 111 112 116 119 117 117 115 122 132 140 149 154 162 165 162 170 170 166 159 149 148 149 147 145 144 144 144 146 147 146 146 145 145 146 146 146 146 143 137 125 105 55 11 4 5 4 359 355 355 354 352 353 355 355 355 354 353 351 349 349 349 348 348 349 348 346 346 346 346 345 345 344 344 344 344 344 344 344 344
70 85 96 107 115 115 116 118 119 118 118 119 121 133 146 154 162 164 168 169 163 163 163 160 152 148 150 151 149 148 147 147 147 148 148 146 146 146 148 150 151 154 155 154 151 142 120 345 342 347 355 354 351 350 350 349 350 352 353 354 354 353 351 350 349 349 349 349 348 348 348 347 346 346 346 346 345 344 344 345 344 344 344 344 343
49 58 87 109 120 121 119 123 125 126 129 130 134 147 163 169 174 173 170 166 159 156 154 152 147 147 151 153 152 151 150 149 149 149 149 148 148 151 154 157 160 164 170 176 189 227 292 321 330 339 344 345 345 346 345 346 348 350 351 351 352 351 350 349 349 348 348 348 348 348 348 347 346 347 347 346 345 345 344 345 344 344 344 344 343
34 48 75 132 145 139 130 128 131 131 122 110 127 188 206 198 191 177 166 162 156 152 149 147 145 147 152 154 153 153 152 150 150 150 150 151 152 155 159 164 169 177 190 204 230 272 302 317 325 332 335 337 339 340 341 344 346 348 348 349 350 350 348 347 348 347 347 348 348 348 347 346 346 347 347 346 346 344 344 344 344 344 343 343 344
336 356 94 196 198 167 141 133 129 350 346 332 314 289 263 233 199 170 157 154 150 147 144 143 145 148 153 156 156 155 153 151 151 152 154 156 159 164 168 175 185 198 211 233 259 287 303 313 320 326 328 332 335 337 340 342 344 345 345 347 348 348 346 346 347 346 346 347 347 347 347 346 346 346 346 346 345 344 343 343 343 343 343 343 344
332 333 335 308 273 280 319 327 326 323 324 322 307 282 232 180 164 153 144 144 143 141 141 144 147 152 156 158 158 156 153 152 154 157 160 164 172 178 183 189 201 217 231 251 273 291 302 310 316 322 325 329 332 335 338 340 341 342 344 345 346 345 345 345 344 344 345 346 346 346 346 345 345 345 345 344 343 343 343 342 342 342 343 344 344
330 330 331 328 318 313 315 317 320 320 318 318 297 235 178 155 148 146 143 144 145 143 145 150 153 157 159 159 158 157 157 157 160 164 169 175 183 193 200 209 221 239 255 270 283 294 301 308 314 319 323 326 329 333 336 338 340 340 341 342 343 343 342 342 342 343 344 345 344 344 345 344 344 343 343 343 342 342 341 341 342 343 344 345 345
321 324 328 327 322 316 311 309 311 315 316 318 269 183 167 158 153 152 151 152 154 152 153 157 160 163 162 162 161 163 164 166 171 175 181 187 194 206 217 231 246 260 272 282 289 296 302 307 312 317 320 324 328 331 334 337 338 338 338 339 340 340 339 340 340 342 343 343 343 343 343 343 343 342 342 342 341 341 341 341 342 344 345 345 345
309 315 321 324 322 315 307 304 305 308 309 312 228 180 170 163 162 160 160 162 164 162 161 163 166 169 167 166 169 172 175 180 185 190 197 202 209 221 235 251 264 274 281 288 294 299 303 308 312 316 320 324 327 331 334 335 337 336 336 337 337 336 337 337 338 340 341 342 341 341 341 341 342 341 341 341 341 340 341 342 343 344 345 345 345
290 297 305 314 316 315 309 301 299 301 295 274 203 189 181 174 171 170 169 170 170 168 166 167 169 172 172 173 179 184 188 194 201 210 221 228 236 247 258 268 276 283 288 293 298 302 305 309 313 317 321 325 328 330 332 334 334 333 333 334 334 334 335 336 337 339 340 340 340 339 339 340 341 340 340 340 340 341 341 342 344 344 345 344 344
264 276 287 301 311 316 315 300 287 283 276 251 204 196 197 190 184 182 180 178 177 175 172 172 173 176 179 183 191 198 203 212 220 232 246 257 266 272 276 280 284 288 292 297 301 304 306 310 315 319 323 325 328 329 329 331 330 330 331 332 332 333 334 335 336 337 339 339 339 338 338 339 340 339 339 340 340 341 341 343 344 344 344 344 343
250 257 274 293 307 314 316 300 269 251 248 242 219 203 207 207 200 196 192 189 187 185 181 181 183 186 190 195 204 213 220 230 241 250 261 272 279 283 286 287 289 292 295 299 302 304 307 312 316 320 322 324 325 326 328 329 329 329 330 331 331 332 333 334 335 336 337 338 337 337 337 338 339 339 339 340 340 340 341 342 343 343 343 343 342
250 251 258 277 293 304 309 296 263 241 230 230 228 215 212 216 215 212 206 203 201 199 197 195 197 199 204 209 217 227 237 245 254 262 269 275 281 285 288 291 293 296 297 299 301 303 307 312 315 318 320 322 323 325 326 327 328 328 328 329 330 331 332 332 334 335 336 336 336 337 337 337 338 339 339 339 340 340 341 341 342 342 342 342 342
249 253 254 261 273 280 289 286 261 244 235 229 229 224 218 217 221 222 218 215 213 211 211 210 211 212 216 221 228 235 243 251 259 267 273 277 282 286 289 292 295 297 299 301 302 304 308 311 314 317 319 321 322 323 324 325 326 325 325 327 328 330 331 332 333 334 335 335 336 336 336 337 338 339 339 339 340 340 340 340 341 342 342 342 341
248 252 254 255 261 266 270 268 253 240 237 236 234 232 227 222 222 224 224 222 221 219 218 219 221 224 227 231 237 242 247 254 260 268 275 279 283 286 288 290 293 296 298 300 303 306 309 313 316 318 320 321 322 322 322 323 323 324 324 326 328 330 332 332 332 334 334 335 336 336 336 337 338 339 338 338 339 339 339 340 341 341 342 341 340
248 248 250 251 253 259 262 259 250 239 233 234 237 238 236 232 228 228 229 229 228 227 226 224 226 230 236 241 246 251 255 259 265 271 275 279 282 285 287 289 291 293 296 299 302 306 310 315 320 321 322 322 321 321 321 322 323 324 325 327 329 330 331 331 332 333 334 335 335 335 335 337 338 338 338 338 339 338 339 340 341 341 341 341 340
253 250 248 250 250 252 255 255 252 246 238 232 235 239 241 240 237 236 235 236 236 237 237 236 236 237 241 247 253 258 263 267 270 273 276 279 282 284 286 289 291 293 295 298 303 308 313 318 321 322 321 321 320 321 321 322 323 324 325 326 327 328 329 329 331 333 334 334 333 334 335 337 337 337 338 338 338 337 338 340 341 342 341 340 339
262 257 254 251 250 250 250 251 250 249 247 242 239 240 243 244 243 242 241 241 242 243 246 247 248 249 251 253 256 260 264 268 270 272 275 278 281 283 286 289 291 294 296 300 305 310 314 318 319 319 319 319 319 319 319 320 321 322 324 325 325 327 328 330 332 332 333 333 332 334 335 335 336 337 337 337 337 337 338 340 341 341 340 339 339
274 268 261 254 250 250 249 247 247 245 247 248 247 246 246 248 248 247 246 246 247 248 249 251 254 255 258 259 260 261 263 265 267 269 272 275 277 281 285 289 292 295 298 301 306 309 313 315 316 316 316 317 316 316 317 317 318 320 322 324 325 326 328 330 331 331 331 332 332 333 334 334 334 335 335 336 337 338 339 340 342 341 339 339 339
279 275 269 266 260 255 252 248 247 246 244 245 246 247 247 248 250 251 252 252 252 253 253 254 255 257 259 262 263 265 266 267 267 268 270 272 275 279 283 287 291 295 299 302 306 309 312 313 314 315 315 315 314 314 315 316 317 319 321 323 325 327 328 329 329 330 330 330 332 333 333 333 333 333 333 336 338 340 340 340 341 340 338 338 339
276 275 273 274 271 265 259 254 250 249 247 245 243 243 245 247 248 251 253 254 254 254 255 255 256 257 259 261 263 265 266 267 268 268 269 271 274 278 282 286 291 296 298 301 305 308 310 310 312 314 314 313 312 313 314 316 317 320 321 323 325 326 327 327 328 329 329 329 331 331 331 331 331 331 333 336 339 341 340 340 339 338 337 338 341
272 273 274 275 275 274 271 264 256 251 249 247 244 242 242 243 244 246 248 250 252 253 254 254 254 255 256 258 260 262 262 264 266 268 269 272 274 277 282 287 291 295 297 301 304 306 308 309 311 312 312 311 311 312 313 315 317 319 321 323 324 324 325 326 327 328 328 329 329 329 329 330 330 330 333 337 339 340 340 339 337 337 337 339 342
272 274 275 276 278 277 276 271 264 258 253 251 249 247 245 244 243 244 245 245 247 249 250 250 251 252 253 255 257 259 260 262 264 267 270 273 275 278 283 287 291 294 297 300 302 304 305 307 308 309 309 309 309 311 313 315 317 318 320 322 322 323 324 325 326 326 328 329 328 327 328 329 329 330 333 336 338 338 339 338 336 336 338 340 343
269 274 276 277 279 278 274 270 267 264 261 257 254 251 250 249 248 247 247 247 246 247 248 249 251 252 253 255 258 260 261 263 264 267 271 274 277 281 286 290 293 294 296 297 299 301 303 304 304 306 306 306 308 311 314 315 315 316 318 320 320 320 322 323 324 324 326 327 326 326 327 328 329 330 333 336 337 337 338 337 335 335 338 341 342
263 269 273 275 277 276 272 270 270 269 267 264 258 254 252 252 252 251 250 250 251 251 251 252 252 254 256 257 260 262 264 265 267 268 272 276 280 284 289 292 293 292 293 295 296 298 299 300 301 303 303 304 307 310 312 312 312 314 317 319 318 318 320 322 322 322 323 324 325 325 326 327 327 330 332 334 335 336 336 336 335 336 339 341 342
258 263 268 272 272 270 271 272 273 273 271 268 265 260 257 257 257 256 255 254 254 255 256 256 257 258 259 260 262 264 267 268 270 272 275 279 283 286 289 290 290 290 291 292 293 294 296 297 298 300 300 302 306 308 309 309 310 312 315 316 316 317 319 320 320 320 321 322 323 325 327 327 327 329 331 333 334 334 334 334 335 337 339 341 341
256 258 263 268 269 266 268 272 273 273 273 271 270 268 264 263 263 263 261 260 259 259 259 259 260 261 262 263 264 266 268 270 272 275 278 281 283 285 286 285 286 287 287 288 290 292 293 294 295 296 298 300 303 306 306 306 308 310 312 312 313 315 317 317 317 317 319 320 322 325 326 326 327 329 330 331 332 332 333 334 335 337 340 341 340
256 257 258 262 266 266 267 268 269 270 273 273 272 271 270 268 268 268 266 264 263 262 261 260 261 262 263 264 265 266 267 270 273 275 278 280 282 283 283 283 282 282 283 285 287 289 290 291 292 293 295 298 301 303 303 304 305 307 308 309 310 313 314 313 314 315 317 320 322 324 325 325 326 328 329 330 331 331 332 332 334 337 339 340 339
257 257 256 257 260 263 266 266 266 267 269 273 273 273 273 272 270 269 268 268 266 265 264 263 263 263 264 265 266 267 269 271 274 276 278 279 280 281 280 280 279 278 279 281 284 286 288 289 290 292 294 297 298 299 299 300 302 304 305 306 308 311 311 310 312 314 317 320 323 324 324 324 325 326 327 328 329 329 331 331 333 336 339 339 337
257 257 255 255 256 258 262 264 265 266 267 270 273 275 275 274 272 270 269 270 270 270 270 269 268 268 268 269 271 273 274 276 277 278 278 277 277 276 276 276 275 275 276 278 283 286 287 288 289 291 293 294 295 294 294 296 298 300 302 303 306 308 308 308 311 314 316 320 323 323 323 323 324 325 326 327 327 327 329 329 331 335 338 337 337
255 256 256 255 256 256 258 262 264 265 266 267 270 272 272 272 270 269 269 270 270 271 273 274 274 273 272 272 272 274 275 274 275 275 274 273 272 271 270 271 272 273 275 279 284 287 287 287 287 288 288 290 291 291 291 292 294 297 299 301 303 305 306 308 312 314 316 321 323 321 321 322 323 323 324 326 326 325 326 328 330 333 336 336 337
253 254 256 257 257 257 257 259 262 264 265 266 266 267 269 269 268 269 269 268 269 270 273 275 276 276 274 271 270 269 268 266 263 262 263 263 264 265 267 269 272 274 279 283 285 285 286 284 283 283 285 287 286 287 288 289 291 294 297 299 301 304 306 309 313 313 315 320 321 319 319 321 321 322 323 324 324 324 324 325 328 332 334 335 338
254 253 255 258 259 259 258 259 261 262 264 264 264 264 265 267 268 270 270 270 272 273 274 274 275 275 275 274 272 268 265 262 259 257 257 259 262 265 269 272 275 279 282 284 282 280 279 279 279 280 282 284 284 284 285 286 289 293 296 297 299 304 306 309 313 313 315 319 319 317 318 320 320 320 321 322 322 322 322 323 326 330 333 333 337
257 255 254 256 258 259 260 261 262 262 263 263 264 264 264 264 266 268 270 273 275 276 276 275 274 274 273 272 270 267 264 263 262 261 261 263 266 269 272 275 277 280 282 280 277 275 275 276 277 278 279 281 283 283 282 284 289 292 294 295 299 303 306 309 311 311 314 317 317 316 318 319 319 319 320 320 320 320 320 320 323 328 331 331 336
261 259 256 256 257 258 259 261 263 264 264 264 264 265 265 265 266 267 269 271 273 272 273 273 273 272 271 269 267 264 263 264 265 266 267 268 269 272 273 274 275 275 275 274 273 273 274 275 276 277 278 278 280 282 283 285 289 292 292 295 299 302 305 307 308 310 313 315 315 315 318 319 319 319 319 319 318 318 318 318 320 325 328 329 334
263 263 262 260 258 258 258 259 261 263 264 265 266 266 266 267 267 267 267 267 268 269 269 271 271 268 267 268 268 268 266 266 267 269 271 271 270 270 270 269 269 268 269 270 271 273 274 274 276 277 278 278 279 281 283 286 289 291 292 296 299 300 304 305 306 310 312 313 314 315 317 318 318 318 318 317 316 315 315 315 317 322 326 327 331
263 265 265 263 261 259 258 259 260 262 263 265 265 265 264 265 266 266 267 267 266 266 267 268 266 265 266 268 269 270 271 270 269 269 270 270 269 268 266 264 265 266 268 270 272 272 273 274 276 277 277 279 280 281 283 286 289 289 293 298 298 298 302 303 305 310 312 312 314 315 316 318 318 318 318 315 314 313 313 312 314 318 322 324 327
265 264 263 263 262 261 261 261 262 262 261 261 261 261 261 262 263 264 266 266 265 265 267 267 266 266 266 266 268 270 271 271 270 269 269 269 269 267 266 265 265 266 268 270 271 273 275 277 277 277 278 280 281 281 284 286 288 290 294 297 296 298 301 302 303 307 309 311 313 314 316 317 317 318 317 314 313 312 311 310 310 314 318 320 323
265 265 263 261 261 262 262 262 263 263 262 260 259 260 261 261 261 262 263 264 264 266 266 266 267 268 267 266 267 268 269 270 270 269 268 268 269 269 269 269 269 269 270 271 273 276 278 279 279 278 278 279 279 282 285 285 285 290 293 293 295 298 300 301 302 304 306 309 311 313 315 316 315 316 315 313 313 312 310 308 308 310 314 317 319
262 265 265 263 261 260 261 262 264 267 267 266 264 264 264 263 262 262 263 264 265 266 265 265 267 269 269 269 268 267 268 270 270 270 268 266 266 267 269 271 272 274 275 277 278 279 280 281 281 279 279 279 279 281 284 284 284 288 290 292 295 296 298 300 302 303 304 307 310 312 315 315 315 315 314 312 312 311 309 307 306 307 310 313 314
258 261 265 266 263 260 260 263 266 269 271 271 270 270 269 268 266 264 266 268 268 268 266 266 266 267 269 269 269 269 269 270 270 270 269 267 266 266 268 270 273 275 277 279 280 282 283 283 283 282 281 281 281 282 282 283 284 287 289 291 293 295 297 299 301 302 302 304 308 311 313 315 315 314 313 311 311 311 309 306 304 304 307 309 311
260 258 259 262 263 263 264 266 267 268 270 273 273 274 274 273 272 269 269 269 270 270 268 268 268 268 269 269 270 270 270 270 270 270 270 270 269 268 268 270 272 274 276 278 280 282 283 283 283 283 283 284 285 284 282 282 283 286 288 290 292 294 296 297 300 301 301 303 306 309 311 314 315 315 314 312 310 310 309 306 303 302 304 306 309
262 260 258 259 262 265 267 267 267 267 270 272 274 274 274 275 276 275 274 272 272 271 270 270 270 270 271 271 270 270 270 271 272 271 271 271 271 270 269 269 270 272 276 278 280 281 281 281 282 283 284 286 286 285 285 284 282 283 286 289 291 292 295 297 299 299 300 303 305 307 311 312 314 316 315 313 312 310 308 306 303 300 301 304 307
261 262 261 261 263 265 267 267 267 268 268 269 271 272 272 273 274 275 275 275 274 274 273 273 272 271 272 273 273 273 273 273 273 274 273 273 272 271 271 270 271 272 275 277 279 280 280 280 280 282 283 286 286 285 285 284 282 281 283 286 289 291 294 296 298 298 300 302 303 306 309 309 312 316 315 314 313 310 307 306 302 299 299 302 305
Height
5879 5879 5880 5880 5880 5881 5881 5882 5882 5882 5882 5882 5882 5883 5883 5883 5883 5883 5884 5884 5884 5884 5884 5884 5884 5885 5885 5885 5885 5885 5885 5885 5885 5885 5885 5885 5886 5886 5887 5888 5889 5890 5890 5891 5891 5892 5892 5891 5891 5891 5891 5891 5891 5891 5890 5890 5890 5890 5889 5889 5889 5889 5888 5888 5888 5887 5887 5886 5885 5885 5884 5884 5883 5882 5881 5880 5879 5878 5877 5875 5874 5873 5871 5870 5868
5880 5880 5881 5881 5881 5881 5882 5882 5882 5882 5882 5882 5883 5883 5883 5883 5883 5884 5884 5884 5885 5885 5885 5885 5885 5885 5885 5885 5885 5885 5885 5885 5885 5885 5885 5886 5886 5887 5888 5889 5890 5891 5891 5892 5892 5892 5892 5892 5892 5892 5891 5891 5891 5891 5891 5890 5890 5890 5890 5890 5889 5889 5889 5888 5888 5887 5887 5886 5885 5885 5884 5883 5883 5882 5880 5879 5878 5877 5876 5875 5873 5872 5870 5869 5868
5881 5881 5882 5882 5882 5882 5882 5883 5883 5883 5883 5883 5883 5883 5883 5883 5884 5884 5884 5885 5885 5885 5885 5885 5885 5885 5885 5885 5885 5885 5885 5885 5886 5886 5886 5887 5888 5889 5890 5890 5891 5891 5892 5892 5893 5893 5893 5892 5892 5892 5892 5891 5891 5891 5891 5891 5891 5891 5890 5890 5890 5889 5889 5888 5888 5887 5887 5887 5886 5885 5884 5883 5882 5881 5880 5879 5878 5877 5876 5874 5873 5871 5870 5868 5867
5882 5882 5882 5882 5882 5883 5883 5883 5883 5883 5883 5883 5883 5883 5883 5883 5884 5884 5884 5885 5885 5885 5885 5886 5886 5886 5885 5886 5886 5885 5886 5886 5886 5887 5887 5888 5889 5890 5890 5891 5892 5892 5893 5893 5893 5893 5893 5893 5893 5892 5892 5892 5892 5891 5891 5891 5891 5891 5891 5890 5890 5890 5889 5889 5888 5888 5887 5887 5886 5885 5884 5883 5882 5881 5880 5879 5878 5876 5875 5874 5872 5871 5869 5867 5866
5883 5883 5883 5883 5883 5883 5883 5883 5883 5883 5884 5884 5884 5883 5883 5884 5884 5884 5884 5885 5885 5885 5886 5886 5886 5886 5886 5886 5886 5886 5887 5887 5887 5888 5889 5890 5890 5891 5891 5892 5892 5893 5893 5893 5893 5893 5893 5893 5893 5893 5892 5892 5892 5892 5892 5892 5891 5891 5891 5891 5890 5890 5889 5889 5888 5888 5887 5886 5885 5884 5884 5883 5882 5881 5880 5878 5877 5876 5874 5872 5871 5870 5868 5866 5865
5883 5883 5883 5883 5883 5884 5884 5884 5884 5884 5884 5884 5884 5884 5884 5884 5884 5884 5885 5885 5885 5885 5886 5886 5885 5886 5886 5886 5887 5887 5888 5888 5889 5889 5890 5891 5891 5892 5892 5893 5893 5894 5894 5894 5894 5894 5894 5893 5893 5893 5893 5893 5892 5892 5892 5892 5892 5892 5891 5891 5891 5890 5890 5889 5889 5888 5887 5886 5885 5884 5883 5882 5881 5880 5879 5878 5876 5875 5873 5872 5870 5869 5867 5866 5864
5884 5884 5884 5884 5884 5884 5884 5884 5884 5884 5884 5884 5884 5884 5884 5884 5884 5884 5885 5885 5885 5885 5885 5885 5886 5886 5886 5887 5888 5888 5889 5889 5890 5890 5891 5891 5892 5893 5893 5894 5894 5894 5894 5894 5894 5894 5894 5894 5893 5893 5893 5893 5893 5893 5892 5892 5892 5892 5892 5891 5891 5890 5890 5889 5888 5888 5887 5886 5885 5884 5883 5882 5881 5880 5878 5877 5875 5874 5872 5871 5869 5868 5866 5865 5863
5884 5884 5885 5885 5884 5884 5884 5885 5885 5885 5885 5885 5885 5885 5885 5885 5885 5885 5884 5884 5884 5885 5885 5885 5886 5886 5887 5888 5888 5889 5889 5890 5890 5891 5892 5892 5893 5893 5894 5894 5894 5894 5894 5894 5894 5894 5894 5894 5893 5893 5893 5893 5893 5893 5893 5892 5892 5892 5892 5891 5891 5890 5889 5889 5888 5887 5886 5885 5884 5883 5882 5881 5880 5879 5877 5876 5875 5873 5872 5870 5868 5867 5865 5864 5862
5885 5885 5885 5885 5885 5885 5885 5885 5885 5885 5885 5885 5885 5885 5885 5885 5885 5884 5884 5884 5884 5884 5885 5885 5886 5887 5887 5888 5889 5889 5890 5890 5891 5891 5892 5893 5893 5894 5894 5894 5894 5894 5894 5894 5894 5894 5894 5894 5894 5894 5894 5894 5893 5893 5893 5893 5892 5892 5892 5891 5890 5890 5889 5888 5887 5887 5886 5885 5884 5883 5882 5881 5879 5878 5877 5875 5874 5872 5871 5869 5867 5866 5864 5862 5861
5885 5885 5885 5885 5885 5885 5885 5885 5885 5885 5885 5885 5885 5885 5885 5885 5884 5884 5884 5884 5884 5885 5885 5886 5886 5887 5888 5889 5890 5890 5891 5891 5892 5892 5893 5893 5894 5894 5894 5894 5894 5894 5894 5894 5894 5894 5894 5894 5894 5894 5894 5894 5893 5893 5893 5893 5892 5892 5891 5891 5890 5889 5889 5888 5887 5886 5885 5884 5883 5882 5881 5880 5879 5877 5876 5874 5873 5871 5870 5868 5866 5865 5863 5861 5860
5886 5886 5886 5886 5886 5886 5886 5886 5886 5886 5885 5885 5885 5885 5885 5885 5884 5884 5885 5885 5885 5886 5886 5887 5887 5888 5889 5890 5890 5891 5891 5892 5892 5893 5893 5893 5894 5894 5894 5894 5894 5894 5894 5894 5894 5894 5895 5895 5895 5894 5894 5894 5893 5893 5893 5892 5892 5892 5891 5890 5890 5889 5888 5887 5887 5886 5885 5884 5882 5881 5880 5879 5877 5876 5875 5873 5872 5870 5869 5867 5865 5864 5862 5861 5859
5886 5886 5886 5886 5886 5886 5886 5886 5886 5886 5885 5885 5885 5885 5885 5885 5885 5885 5886 5886 5887 5887 5888 5888 5888 5889 5890 5890 5891 5892 5892 5892 5893 5893 5894 5894 5894 5894 5894 5894 5894 5894 5894 5895 5895 5895 5895 5895 5895 5894 5894 5894 5893 5893 5893 5892 5892 5891 5890 5890 5889 5888 5887 5887 5886 5885 5884 5883 5882 5881 5879 5878 5877 5875 5874 5873 5871 5869 5868 5866 5865 5863 5861 5860 5858
5885 5886 5886 5886 5886 5886 5886 5886 5886 5886 5885 5885 5885 5885 5885 5885 5886 5887 5887 5888 5888 5889 5889 5890 5890 5890 5891 5891 5892 5892 5893 5893 5893 5894 5894 5894 5894 5894 5894 5895 5895 5895 5895 5895 5895 5895 5895 5895 5895 5894 5894 5894 5894 5893 5893 5892 5891 5891 5890 5889 5888 5888 5887 5886 5885 5884 5883 5882 5881 5880 5879 5877 5876 5875 5873 5872 5870 5869 5867 5865 5864 5862 5860 5858 5856
5885 5885 5886 5886 5886 5886 5886 5886 5886 5885 5885 5885 5885 5885 5885 5885 5886 5887 5888 5889 5889 5889 5890 5891 5891 5891 5892 5892 5893 5893 5893 5894 5894 5894 5894 5894 5894 5894 5895 5895 5895 5895 5895 5895 5895 5895 5895 5895 5895 5895 5894 5894 5894 5893 5893 5892 5891 5890 5889 5889 5888 5887 5886 5885 5884 5883 5882 5881 5880 5879 5878 5876 5875 5874 5872 5871 5869 5868 5866 5864 5863 5861 5859 5857 5855
5885 5885 5885 5885 5885 5885 5885 5885 5885 5885 5885 5885 5885 5885 5885 5886 5886 5887 5888 5889 5889 5890 5890 5891 5892 5892 5893 5893 5893 5893 5894 5894 5894 5894 5894 5895 5895 5895 5895 5895 5895 5896 5896 5895 5895 5895 5895 5895 5895 5895 5894 5894 5893 5893 5892 5891 5891 5890 5889 5888 5887 5887 5886 5885 5884 5883 5882 5880 5879 5878 5877 5876 5874 5873 5872 5870 5869 5867 5865 5863 5861 5860 5858 5855 5853
5885 5885 5885 5885 5885 5885 5885 5885 5885 5885 5885 5885 5885 5886 5886 5886 5886 5887 5888 5888 5889 5890 5890 5891 5892 5893 5893 5893 5894 5894 5894 5894 5894 5895 5895 5895 5895 5895 5895 5896 5896 5896 5896 5895 5895 5895 5895 5895 5895 5894 5894 5894 5893 5892 5892 5891 5890 5889 5888 5888 5887 5886 5885 5884 5883 5882 5881 5880 5878 5877 5876 5875 5873 5872 5871 5869 5867 5866 5864 5862 5860 5858 5856 5854 5851
5885 5885 5885 5885 5885 5885 5885 5885 5885 5885 5885 5886 5886 5886 5886 5887 5887 5887 5888 5888 5889 5889 5890 5891 5892 5893 5893 5894 5894 5894 5894 5895 5895 5895 5896 5896 5896 5896 5896 5896 5896 5896 5896 5895 5895 5895 5895 5894 5894 5894 5894 5893 5892 5892 5891 5890 5890 5889 5888 5887 5886 5885 5884 5883 5882 5881 5880 5879 5878 5876 5875 5874 5873 5871 5870 5868 5866 5864 5862 5861 5859 5857 5854 5852 5850
5884 5885 5885 5885 5885 5885 5885 5885 5885 5885 5886 5886 5886 5887 5887 5887 5888 5888 5888 5889 5889 5890 5891 5891 5892 5893 5893 5894 5894 5895 5895 5895 5895 5896 5896 5896 5896 5896 5896 5896 5896 5896 5896 5895 5895 5895 5894 5894 5894 5894 5893 5892 5892 5891 5891 5890 5889 5888 5887 5886 5885 5884 5883 5882 5881 5880 5879 5878 5877 5875 5874 5873 5872 5870 5868 5867 5865 5863 5861 5859 5857 5855 5853 5850 5848
5884 5884 5884 5885 5885 5885 5884 5884 5885 5885 5886 5886 5887 5887 5887 5888 5888 5889 5889 5890 5890 5891 5891 5892 5892 5893 5893 5894 5894 5895 5895 5895 5896 5896 5896 5896 5897 5897 5897 5897 5897 5896 5896 5896 5895 5895 5894 5894 5894 5893 5893 5892 5891 5891 5890 5889 5888 5887 5886 5885 5884 5883 5882 5881 5880 5879 5878 5877 5876 5874 5873 5872 5871 5869 5867 5865 5864 5862 5860 5857 5855 5853 5851 5849 5846
5884 5884 5884 5884 5884 5884 5884 5885 5885 5885 5886 5886 5887 5887 5888 5888 5889 5889 5890 5890 5891 5891 5892 5892 5893 5893 5893 5894 5894 5895 5895 5895 5895 5896 5896 5896 5896 5897 5897 5896 5896 5896 5896 5895 5895 5894 5894 5894 5893 5893 5892 5891 5891 5890 5889 5888 5887 5886 5885 5884 5883 5882 5882 5880 5879 5878 5877 5876 5875 5873 5872 5870 5869 5868 5866 5864 5862 5860 5858 5856 5854 5851 5849 5847 5845
5883 5884 5884 5884 5884 5884 5884 5884 5885 5885 5886 5887 5887 5888 5888 5888 5889 5889 5890 5891 5891 5892 5892 5893 5893 5893 5893 5894 5894 5894 5895 5895 5895 5895 5896 5896 5896 5896 5896 5896 5895 5895 5895 5894 5894 5894 5893 5893 5893 5892 5892 5891 5890 5889 5888 5888 5887 5886 5885 5884 5883 5882 5881 5880 5878 5877 5876 5875 5874 5872 5871 5869 5868 5867 5865 5863 5861 5859 5856 5854 5852 5850 5848 5846 5843
5883 5883 5883 5883 5884 5884 5884 5884 5884 5885 5886 5887 5887 5887 5888 5888 5889 5889 5890 5891 5891 5892 5892 5892 5892 5893 5893 5893 5894 5894 5894 5894 5895 5895 5895 5895 5895 5895 5895 5895 5894 5894 5894 5893 5893 5893 5892 5892 5892 5892 5891 5890 5890 5889 5888 5887 5886 5885 5884 5883 5882 5881 5880 5879 5878 5877 5876 5874 5873 5871 5870 5868 5867 5865 5863 5861 5859 5857 5855 5852 5850 5848 5846 5844 5841
5882 5882 5883 5883 5883 5883 5884 5884 5884 5885 5885 5886 5887 5887 5888 5888 5889 5889 5890 5890 5891 5891 5891 5892 5892 5892 5893 5893 5893 5894 5894 5894 5894 5894 5894 5894 5894 5894 5894 5894 5894 5893 5893 5892 5892 5892 5891 5891 5891 5891 5890 5890 5889 5888 5887 5886 5885 5884 5883 5882 5881 5880 5879 5878 5877 5876 5874 5873 5871 5870 5869 5867 5866 5864 5862 5859 5857 5855 5853 5851 5849 5847 5845 5842 5840
5880 5881 5881 5882 5883 5883 5884 5884 5884 5884 5885 5886 5886 5887 5887 5888 5889 5889 5889 5890 5890 5891 5891 5892 5892 5892 5892 5893 5893 5893 5894 5894 5894 5894 5894 5893 5893 5893 5893 5893 5893 5893 5892 5892 5891 5891 5891 5891 5890 5890 5889 5888 5887 5886 5885 5884 5883 5882 5882 5881 5880 5879 5878 5877 5876 5874 5873 5872 5870 5869 5867 5866 5864 5862 5860 5858 5855 5853 5851 5849 5847 5845 5843 5840 5838
5879 5880 5880 5881 5882 5882 5883 5883 5884 5884 5885 5885 5886 5886 5887 5888 5888 5889 5889 5889 5890 5890 5891 5891 5892 5892 5892 5892 5893 5893 5893 5893 5893 5893 5893 5893 5892 5892 5892 5892 5892 5892 5891 5891 5891 5891 5890 5890 5889 5889 5888 5887 5886 5885 5884 5883 5882 5881 5881 5880 5879 5878 5877 5876 5874 5873 5872 5870 5869 5868 5866 5864 5862 5860 5858 5856 5854 5852 5850 5848 5846 5844 5841 5839 5836
5879 5879 5879 5880 5880 5881 5882 5882 5883 5884 5884 5885 5885 5886 5886 5887 5887 5888 5888 5889 5889 5890 5890 5891 5891 5891 5892 5892 5892 5892 5892 5892 5892 5892 5892 5891 5891 5891 5891 5891 5891 5891 5890 5890 5890 5890 5889 5889 5888 5888 5887 5886 5885 5884 5883 5882 5881 5880 5879 5878 5878 5876 5875 5874 5873 5872 5870 5869 5868 5866 5864 5862 5860 5858 5857 5855 5853 5850 5848 5846 5844 5842 5839 5837 5834
5878 5878 5878 5879 5879 5880 5880 5881 5882 5882 5883 5884 5884 5885 5885 5886 5886 5887 5887 5888 5888 5889 5889 5890 5890 5890 5891 5891 5891 5891 5891 5891 5891 5891 5891 5890 5890 5890 5890 5890 5890 5889 5889 5889 5889 5889 5888 5888 5887 5886 5886 5885 5884 5883 5882 5881 5880 5879 5878 5877 5876 5875 5874 5873 5872 5870 5869 5867 5866 5864 5862 5860 5858 5856 5855 5853 5851 5849 5846 5844 5842 5840 5837 5835 5832
5877 5877 5878 5878 5878 5879 5879 5880 5881 5881 5882 5882 5883 5883 5884 5885 5885 5886 5886 5887 5887 5887 5888 5888 5889 5889 5889 5889 5889 5890 5890 5890 5890 5890 5889 5889 5889 5889 5889 5889 5888 5888 5888 5887 5887 5887 5887 5886 5885 5885 5884 5883 5882 5881 5880 5879 5878 5877 5876 5876 5875 5874 5873 5872 5870 5869 5867 5866 5864 5863 5861 5859 5857 5855 5853 5852 5850 5848 5845 5843 5840 5838 5835 5833 5830
5877 5877 5877 5877 5877 5878 5878 5878 5879 5879 5880 5880 5881 5882 5882 5883 5883 5884 5884 5885 5885 5886 5886 5886 5887 5887 5887 5888 5888 5888 5888 5888 5889 5888 5888 5888 5888 5888 5888 5887 5887 5887 5886 5886 5886 5885 5885 5884 5884 5883 5882 5882 5881 5880 5879 5878 5877 5876 5875 5874 5873 5872 5871 5870 5869 5868 5866 5864 5862 5860 5859 5857 5855 5853 5851 5850 5848 5846 5844 5841 5839 5836 5833 5831 5828
5876 5876 5876 5876 5876 5876 5877 5877 5877 5878 5878 5879 5879 5880 5881 5881 5881 5882 5882 5883 5883 5884 5884 5884 5885 5885 5885 5886 5886 5886 5887 5887 5887 5887 5886 5886 5886 5886 5886 5886 5886 5885 5885 5884 5884 5883 5883 5882 5882 5881 5881 5880 5879 5878 5877 5876 5875 5874 5874 5873 5872 5871 5869 5868 5867 5866 5864 5863 5861 5859 5857 5855 5854 5852 5850 5848 5846 5844 5842 5840 5837 5834 5831 5829 5826
5875 5875 5876 5875 5876 5875 5876 5876 5876 5876 5876 5877 5878 5878 5879 5879 5880 5880 5881 5881 5881 5882 5882 5882 5883 5883 5884 5884 5884 5884 5885 5885 5885 5885 5885 5885 5885 5885 5885 5885 5884 5884 5883 5883 5882 5881 5881 5880 5880 5879 5879 5878 5877 5876 5876 5875 5874 5873 5872 5871 5870 5869 5868 5866 5865 5864 5863 5862 5859 5857 5855 5853 5851 5849 5848 5846 5844 5842 5841 5838 5835 5832 5829 5827 5824
5874 5874 5874 5875 5875 5874 5874 5874 5874 5875 5875 5875 5876 5876 5877 5877 5878 5878 5879 5879 5879 5880 5880 5880 5881 5881 5882 5882 5882 5882 5883 5883 5883 5883 5883 5883 5883 5883 5883 5883 5883 5882 5881 5880 5880 5879 5879 5878 5878 5877 5877 5876 5876 5875 5874 5873 5872 5871 5870 5869 5868 5867 5866 5865 5863 5862 5861 5859 5858 5856 5853 5851 5849 5847 5846 5844 5842 5841 5839 5836 5833 5830 5827 5824 5822
5872 5873 5873 5873 5874 5873 5873 5873 5873 5873 5874 5874 5874 5875 5875 5875 5876 5876 5877 5877 5878 5878 5878 5878 5879 5879 5880 5880 5880 5880 5881 5881 5881 5881 5881 5881 5881 5881 5881 5881 5880 5880 5879 5878 5877 5877 5877 5876 5876 5876 5875 5874 5874 5873 5872 5871 5871 5870 5869 5868 5866 5865 5864 5863 5861 5860 5858 5857 5855 5854 5852 5849 5847 5845 5844 5842 5840 5838 5836 5834 5831 5828 5825 5822 5819
5871 5871 5872 5872 5872 5872 5872 5872 5872 5872 5872 5873 5873 5873 5874 5874 5874 5874 5875 5875 5875 5876 5876 5876 5876 5877 5877 5878 5878 5878 5879 5879 5879 5879 5879 5879 5879 5879 5879 5879 5878 5877 5877 5876 5875 5875 5874 5874 5874 5873 5873 5872 5872 5871 5870 5870 5869 5868 5867 5866 5865 5863 5862 5860 5859 5858 5857 5855 5853 5851 5849 5847 5845 5843 5841 5840 5838 5836 5834 5831 5829 5826 5823 5820 5817
5869 5869 5870 5870 5870 5870 5871 5871 5871 5871 5871 5871 5872 5872 5872 5872 5873 5873 5873 5873 5873 5874 5874 5874 5874 5875 5875 5875 5876 5876 5876 5877 5877 5877 5877 5877 5877 5877 5876 5876 5876 5875 5874 5873 5873 5873 5872 5872 5871 5871 5871 5870 5870 5869 5869 5868 5867 5866 5865 5864 5863 5862 5860 5858 5857 5856 5855 5853 5851 5849 5847 5845 5843 5841 5839 5838 5836 5834 5831 5829 5826 5824 5821 5818 5815
5867 5868 5868 5868 5868 5869 5869 5869 5869 5869 5870 5870 5870 5870 5871 5871 5871 5871 5871 5871 5871 5871 5872 5872 5872 5873 5873 5873 5873 5874 5874 5874 5875 5875 5875 5875 5874 5874 5874 5874 5873 5873 5872 5871 5870 5870 5870 5869 5869 5869 5869 5868 5868 5867 5866 5865 5865 5864 5863 5862 5861 5859 5858 5856 5855 5854 5852 5851 5849 5847 5845 5843 5841 5839 5838 5835 5833 5831 5829 5827 5824 5821 5819 5815 5812
5865 5865 5866 5866 5866 5867 5867 5867 5867 5868 5868 5869 5869 5869 5869 5869 5869 5869 5869 5869 5869 5870 5870 5870 5870 5871 5871 5871 5872 5872 5872 5873 5873 5873 5873 5872 5872 5872 5871 5871 5871 5870 5869 5869 5868 5868 5868 5868 5867 5867 5867 5866 5866 5865 5864 5863 5862 5862 5860 5859 5858 5857 5856 5854 5853 5852 5850 5849 5847 5845 5843 5841 5839 5837 5836 5834 5831 5828 5826 5824 5821 5819 5816 5813 5810
5862 5863 5863 5864 5864 5864 5865 5865 5865 5866 5867 5867 5867 5867 5867 5867 5867 5867 5867 5868 5868 5868 5868 5868 5869 5869 5869 5869 5869 5870 5870 5870 5870 5870 5870 5870 5869 5869 5868 5868 5868 5868 5867 5867 5867 5866 5866 5866 5865 5865 5864 5864 5863 5862 5861 5861 5860 5859 5858 5857 5856 5855 5854 5852 5851 5849 5847 5846 5845 5842 5840 5839 5837 5835 5833 5832 5829 5826 5823 5821 5819 5816 5814 5811 5808
5860 5860 5861 5861 5862 5862 5863 5863 5863 5864 5864 5865 5865 5865 5866 5866 5866 5866 5866 5866 5866 5866 5866 5867 5867 5867 5867 5867 5867 5867 5867 5867 5867 5867 5867 5866 5866 5866 5865 5865 5865 5865 5865 5865 5865 5864 5864 5863 5863 5862 5862 5861 5861 5860 5859 5858 5857 5857 5856 5854 5853 5853 5851 5850 5848 5846 5844 5844 5842 5840 5838 5836 5834 5832 5831 5829 5827 5824 5821 5818 5816 5813 5811 5808 5805
5857 5858 5858 5859 5859 5859 5860 5861 5860 5861 5862 5862 5863 5863 5864 5864 5864 5864 5865 5864 5865 5865 5865 5865 5865 5865 5865 5865 5865 5865 5865 5864 5864 5864 5864 5863 5863 5863 5863 5863 5863 5863 5863 5863 5863 5862 5862 5861 5860 5860 5859 5858 5858 5857 5856 5855 5854 5854 5853 5852 5851 5850 5849 5847 5846 5844 5842 5841 5840 5837 5836 5834 5832 5830 5828 5826 5824 5822 5819 5816 5813 5811 5808 5805 5802
5854 5855 5856 5856 5857 5857 5858 5858 5858 5858 5859 5859 5860 5861 5861 5861 5862 5863 5863 5863 5863 5864 5864 5863 5863 5863 5862 5862 5862 5862 5862 5862 5862 5861 5861 5861 5861 5861 5861 5862 5862 5861 5861 5861 5860 5860 5859 5858 5858 5857 5856 5856 5855 5854 5853 5852 5852 5851 5851 5850 5849 5848 5846 5845 5843 5841 5840 5838 5837 5835 5833 5832 5829 5827 5825 5823 5821 5819 5817 5814 5811 5808 5806 5802 5799
5850 5851 5853 5854 5854 5854 5855 5856 5855 5856 5857 5857 5857 5858 5858 5858 5859 5860 5861 5861 5861 5862 5861 5861 5861 5861 5860 5860 5859 5859 5860 5859 5859 5859 5859 5859 5859 5859 5859 5860 5859 5859 5859 5858 5858 5857 5857 5856 5855 5854 5853 5853 5853 5851 5850 5849 5849 5848 5848 5847 5846 5845 5844 5842 5840 5838 5837 5836 5834 5832 5831 5829 5827 5824 5822 5820 5818 5816 5814 5812 5809 5806 5804 5800 5797
5847 5848 5850 5850 5851 5851 5852 5852 5852 5853 5854 5854 5855 5856 5855 5856 5857 5857 5858 5858 5859 5859 5859 5859 5858 5857 5857 5857 5857 5857 5857 5857 5857 5857 5857 5857 5857 5857 5857 5857 5856 5856 5856 5855 5855 5854 5854 5853 5852 5852 5851 5850 5850 5849 5847 5847 5846 5845 5844 5844 5843 5842 5841 5839 5837 5836 5834 5833 5831 5829 5827 5826 5824 5821 5819 5817 5815 5813 5811 5809 5806 5803 5801 5798 5794
5844 5845 5846 5846 5847 5848 5848 5849 5850 5851 5851 5852 5853 5853 5852 5853 5854 5854 5855 5856 5856 5856 5857 5856 5855 5854 5855 5855 5855 5855 5855 5855 5855 5854 5854 5854 5854 5854 5854 5854 5853 5853 5853 5852 5852 5851 5851 5850 5850 5849 5848 5847 5847 5846 5845 5844 5844 5842 5841 5841 5839 5838 5838 5836 5834 5833 5831 5830 5829 5826 5824 5822 5820 5818 5816 5814 5812 5810 5808 5806 5803 5800 5798 5796 5792
5840 5841 5842 5842 5843 5844 5845 5846 5846 5847 5848 5848 5849 5849 5849 5850 5851 5851 5852 5852 5853 5853 5854 5853 5851 5851 5853 5853 5852 5852 5852 5852 5852 5852 5852 5851 5851 5851 5851 5851 5851 5851 5850 5850 5849 5848 5848 5847 5847 5846 5845 5844 5843 5843 5843 5842 5841 5840 5839 5837 5836 5835 5835 5833 5832 5831 5829 5827 5825 5823 5822 5819 5817 5815 5813 5810 5808 5807 5805 5803 5800 5797 5795 5793 5790
5837 5837 5838 5839 5840 5841 5841 5842 5843 5843 5844 5845 5845 5845 5846 5847 5848 5848 5848 5849 5849 5851 5851 5850 5848 5848 5849 5849 5849 5849 5849 5849 5849 5849 5849 5849 5849 5849 5848 5848 5848 5848 5848 5847 5847 5846 5845 5844 5843 5843 5842 5841 5840 5840 5840 5839 5838 5838 5836 5834 5832 5831 5831 5829 5829 5828 5826 5824 5822 5820 5819 5816 5813 5812 5810 5807 5805 5803 5801 5799 5797 5794 5792 5789 5787
5835 5834 5834 5835 5836 5837 5838 5839 5840 5840 5841 5842 5842 5842 5843 5844 5845 5845 5845 5846 5847 5848 5847 5846 5846 5845 5845 5846 5846 5846 5845 5845 5845 5845 5846 5846 5846 5846 5845 5845 5845 5845 5845 5845 5844 5843 5842 5841 5840 5839 5838 5838 5837 5837 5837 5836 5835 5835 5833 5831 5830 5828 5827 5826 5825 5824 5823 5821 5819 5817 5815 5813 5810 5808 5806 5803 5801 5799 5797 5796 5793 5790 5788 5786 5784
5832 5832 5832 5832 5832 5833 5834 5836 5837 5838 5839 5839 5840 5840 5840 5841 5842 5843 5843 5843 5844 5844 5844 5843 5843 5842 5842 5842 5842 5842 5842 5842 5841 5841 5842 5842 5843 5843 5842 5841 5841 5841 5841 5841 5841 5840 5839 5838 5837 5836 5835 5834 5834 5834 5833 5832 5832 5831 5830 5828 5827 5825 5823 5823 5822 5820 5819 5818 5817 5814 5812 5810 5807 5804 5802 5800 5797 5795 5794 5792 5790 5787 5785 5782 5781
5828 5829 5830 5829 5828 5830 5831 5833 5835 5836 5836 5837 5838 5838 5838 5838 5838 5839 5840 5841 5840 5840 5840 5840 5840 5839 5839 5839 5839 5838 5838 5838 5838 5838 5838 5838 5839 5839 5839 5838 5838 5837 5836 5836 5836 5836 5835 5834 5834 5833 5832 5831 5831 5830 5830 5829 5828 5827 5826 5825 5823 5821 5820 5819 5818 5816 5815 5814 5813 5811 5809 5807 5804 5801 5799 5797 5794 5792 5790 5788 5786 5784 5781 5779 5777
5823 5824 5826 5826 5826 5827 5829 5831 5833 5833 5834 5834 5834 5835 5835 5835 5835 5836 5837 5837 5837 5836 5836 5836 5836 5836 5835 5835 5835 5835 5835 5834 5834 5834 5834 5834 5834 5834 5834 5834 5833 5833 5832 5832 5832 5832 5831 5830 5830 5829 5829 5829 5827 5826 5826 5825 5825 5824 5822 5821 5820 5818 5816 5815 5814 5812 5810 5810 5808 5807 5805 5803 5801 5799 5795 5793 5791 5788 5786 5784 5782 5780 5777 5775 5773
5819 5820 5822 5824 5825 5826 5827 5828 5829 5830 5830 5830 5830 5831 5831 5831 5832 5832 5833 5833 5833 5832 5832 5833 5832 5832 5832 5831 5831 5831 5831 5831 5830 5830 5830 5830 5830 5829 5830 5829 5829 5829 5829 5828 5828 5827 5827 5826 5826 5826 5826 5825 5824 5823 5822 5821 5820 5820 5819 5818 5816 5814 5813 5812 5810 5807 5806 5805 5804 5803 5802 5799 5798 5796 5792 5789 5786 5784 5782 5780 5778 5776 5774 5772 5770